When you browse on this site, cookies collect data to enhance your experience and personalize the content and advertising you see.
Visit our Privacy Policy to learn more. By continuing to use the site, you agree to this use of cookies and data.
  • Em Portugal
  • Lista de países
  • Para 7 dias
  • Temperatura da água
  • Mapas de satélite
  • Mapa do tempo
  • Widgets de tempo
  • user-avatar
    Iniciar Sessão

    Previsão horária em Tyumenskaya

    Hoje, 16 Julho, Terça-feira

    Tempo Temperatura Precipitação Vento Pressão Humidade
    00:00 +23°C° 0.1 mm 5 m/s 741 mmHg 75%
    01:00 +21°C° 0.1 mm 4 m/s 740 mmHg 81%
    02:00 +20°C° 0.1 mm 4 m/s 741 mmHg 84%
    03:00 +18°C° 0.1 mm 4 m/s 741 mmHg 87%
    04:00 +16°C° 0 mm 3 m/s 740 mmHg 93%
    05:00 +17°C° 0 mm 3 m/s 740 mmHg 89%
    06:00 +18°C° 0 mm 3 m/s 741 mmHg 85%
    07:00 +19°C° 0 mm 4 m/s 741 mmHg 81%
    08:00 +20°C° 0 mm 4 m/s 741 mmHg 77%
    09:00 +21°C° 0 mm 5 m/s 742 mmHg 73%
    10:00 +22°C° 0 mm 5 m/s 742 mmHg 70%
    11:00 +21°C° 0.1 mm 6 m/s 742 mmHg 74%
    12:00 +20°C° 0.1 mm 6 m/s 743 mmHg 77%
    13:00 +19°C° 0.1 mm 6 m/s 743 mmHg 81%
    14:00 +17°C° 0 mm 6 m/s 744 mmHg 80%
    15:00 +17°C° 0 mm 6 m/s 745 mmHg 79%
    16:00 +17°C° 0 mm 6 m/s 745 mmHg 78%
    17:00 +17°C° 0 mm 6 m/s 745 mmHg 78%
    18:00 +17°C° 0 mm 6 m/s 746 mmHg 77%
    19:00 +17°C° 0 mm 6 m/s 746 mmHg 77%
    20:00 +16°C° 0 mm 5 m/s 746 mmHg 79%
    21:00 +15°C° 0 mm 4 m/s 747 mmHg 82%
    22:00 +14°C° 0 mm 3 m/s 748 mmHg 85%
    23:00 +14°C° 0 mm 3 m/s 748 mmHg 84%

    Amanhã, 17 Julho, Quarta-feira

    Tempo Temperatura Precipitação Vento Pressão Humidade
    00:00 +14°C° 0 mm 4 m/s 748 mmHg 84%
    01:00 +14°C° 0 mm 4 m/s 748 mmHg 84%
    02:00 +14°C° 0 mm 4 m/s 748 mmHg 87%
    03:00 +13°C° 0 mm 3 m/s 749 mmHg 91%
    04:00 +13°C° 0 mm 3 m/s 749 mmHg 95%
    05:00 +14°C° 0 mm 4 m/s 749 mmHg 89%
    06:00 +17°C° 0 mm 4 m/s 749 mmHg 83%
    07:00 +19°C° 0 mm 5 m/s 749 mmHg 77%
    08:00 +20°C° 0 mm 5 m/s 749 mmHg 70%
    09:00 +22°C° 0 mm 5 m/s 749 mmHg 63%
    10:00 +23°C° 0 mm 5 m/s 749 mmHg 57%
    11:00 +25°C° 0 mm 5 m/s 749 mmHg 53%
    12:00 +26°C° 0 mm 5 m/s 749 mmHg 49%
    13:00 +26°C° 0 mm 5 m/s 749 mmHg 45%
    14:00 +26°C° 0 mm 5 m/s 749 mmHg 47%
    15:00 +27°C° 0 mm 5 m/s 749 mmHg 48%
    16:00 +27°C° 0 mm 4 m/s 749 mmHg 49%
    17:00 +25°C° 0 mm 4 m/s 749 mmHg 53%
    18:00 +24°C° 0 mm 3 m/s 749 mmHg 58%
    19:00 +21°C° 0 mm 3 m/s 749 mmHg 62%
    20:00 +20°C° 0 mm 3 m/s 749 mmHg 63%
    21:00 +18°C° 0 mm 3 m/s 749 mmHg 64%
    22:00 +17°C° 0 mm 3 m/s 749 mmHg 65%
    23:00 +16°C° 0 mm 3 m/s 749 mmHg 69%

    Depois de amanhã, 18 Julho, Quinta-feira

    Tempo Temperatura Precipitação Vento Pressão Humidade
    00:00 +14°C° 0 mm 3 m/s 749 mmHg 72%
    01:00 +13°C° 0 mm 3 m/s 749 mmHg 75%
    02:00 +13°C° 0 mm 3 m/s 749 mmHg 77%
    03:00 +13°C° 0 mm 3 m/s 749 mmHg 78%
    04:00 +12°C° 0 mm 3 m/s 749 mmHg 80%
    05:00 +14°C° 0 mm 4 m/s 749 mmHg 75%
    06:00 +15°C° 0 mm 4 m/s 749 mmHg 69%
    07:00 +17°C° 0 mm 5 m/s 748 mmHg 64%
    08:00 +20°C° 0 mm 5 m/s 748 mmHg 59%
    09:00 +21°C° 0 mm 5 m/s 748 mmHg 53%
    10:00 +23°C° 0 mm 5 m/s 748 mmHg 48%
    11:00 +25°C° 0 mm 5 m/s 748 mmHg 46%
    12:00 +26°C° 0 mm 5 m/s 748 mmHg 43%
    13:00 +27°C° 0 mm 5 m/s 747 mmHg 41%
    14:00 +27°C° 0 mm 5 m/s 747 mmHg 42%
    15:00 +27°C° 0 mm 4 m/s 747 mmHg 43%
    16:00 +28°C° 0 mm 4 m/s 747 mmHg 45%
    17:00 +26°C° 0 mm 3 m/s 747 mmHg 49%
    18:00 +25°C° 0 mm 3 m/s 747 mmHg 53%
    19:00 +23°C° 0 mm 2 m/s 747 mmHg 58%
    20:00 +20°C° 0 mm 2 m/s 747 mmHg 58%
    21:00 +19°C° 0 mm 2 m/s 747 mmHg 58%
    22:00 +17°C° 0 mm 2 m/s 747 mmHg 58%
    23:00 +16°C° 0 mm 2 m/s 747 mmHg 60%

    19 Julho, Sexta-feira

    Tempo Temperatura Precipitação Vento Pressão Humidade
    00:00 +15°C° 0 mm 2 m/s 747 mmHg 61%
    01:00 +15°C° 0 mm 2 m/s 747 mmHg 62%
    02:00 +14°C° 0 mm 1 m/s 747 mmHg 64%
    03:00 +14°C° 0 mm 1 m/s 747 mmHg 67%
    04:00 +14°C° 0 mm 1 m/s 747 mmHg 69%
    05:00 +16°C° 0 mm 1 m/s 747 mmHg 67%
    06:00 +17°C° 0 mm 2 m/s 747 mmHg 66%
    07:00 +19°C° 0 mm 2 m/s 747 mmHg 64%
    08:00 +20°C° 0.5 mm 2 m/s 747 mmHg 66%
    09:00 +21°C° 0.5 mm 2 m/s 747 mmHg 67%
    10:00 +23°C° 0.5 mm 2 m/s 747 mmHg 69%
    11:00 +23°C° 1.4 mm 2 m/s 747 mmHg 71%
    12:00 +24°C° 1.4 mm 2 m/s 747 mmHg 72%
    13:00 +25°C° 1.4 mm 2 m/s 746 mmHg 74%
    14:00 +26°C° 0.1 mm 2 m/s 746 mmHg 72%
    15:00 +26°C° 0.1 mm 1 m/s 746 mmHg 70%
    16:00 +27°C° 0.1 mm 1 m/s 746 mmHg 68%
    17:00 +26°C° 0 mm 1 m/s 746 mmHg 72%
    18:00 +26°C° 0 mm 1 m/s 746 mmHg 77%
    19:00 +25°C° 0 mm 1 m/s 747 mmHg 81%
    20:00 +24°C° 0 mm 1 m/s 747 mmHg 84%
    21:00 +22°C° 0 mm 1 m/s 747 mmHg 87%
    22:00 +21°C° 0 mm 1 m/s 747 mmHg 91%
    23:00 +20°C° 0 mm 1 m/s 747 mmHg 91%

    20 Julho, Sábado

    Tempo Temperatura Precipitação Vento Pressão Humidade
    00:00 +20°C° 0 mm 1 m/s 747 mmHg 92%
    01:00 +19°C° 0 mm 1 m/s 748 mmHg 92%
    02:00 +17°C° 0 mm 0 m/s 748 mmHg 92%
    03:00 +17°C° 0 mm 0 m/s 748 mmHg 93%
    04:00 +17°C° 0 mm 0 m/s 748 mmHg 93%
    05:00 +18°C° 0 mm 0 m/s 748 mmHg 89%
    06:00 +20°C° 0 mm 0 m/s 749 mmHg 86%
    07:00 +21°C° 0 mm 0 m/s 749 mmHg 82%
    08:00 +22°C° 0.4 mm 0 m/s 749 mmHg 79%
    09:00 +23°C° 0.4 mm 0 m/s 749 mmHg 76%
    10:00 +24°C° 0.4 mm 0 m/s 748 mmHg 73%
    11:00 +26°C° 0.8 mm 1 m/s 748 mmHg 75%
    12:00 +26°C° 0.8 mm 1 m/s 748 mmHg 76%
    13:00 +26°C° 0.8 mm 1 m/s 748 mmHg 78%
    14:00 +26°C° 0.6 mm 1 m/s 748 mmHg 76%
    15:00 +26°C° 0.6 mm 1 m/s 748 mmHg 73%
    16:00 +27°C° 0.6 mm 1 m/s 748 mmHg 71%
    17:00 +26°C° 0.1 mm 1 m/s 748 mmHg 74%
    18:00 +26°C° 0.1 mm 1 m/s 748 mmHg 77%
    19:00 +25°C° 0.1 mm 1 m/s 748 mmHg 80%
    20:00 +24°C° 0 mm 1 m/s 748 mmHg 83%
    21:00 +22°C° 0 mm 1 m/s 748 mmHg 85%
    22:00 +21°C° 0 mm 1 m/s 748 mmHg 88%
    23:00 +20°C° 0.2 mm 1 m/s 748 mmHg 89%

    21 Julho, Domingo

    Tempo Temperatura Precipitação Vento Pressão Humidade
    00:00 +20°C° 0.2 mm 1 m/s 748 mmHg 90%
    01:00 +20°C° 0.2 mm 1 m/s 748 mmHg 90%
    02:00 +20°C° 1.1 mm 1 m/s 747 mmHg 92%
    03:00 +17°C° 1.1 mm 0 m/s 747 mmHg 93%
    04:00 +17°C° 1.1 mm 0 m/s 747 mmHg 95%
    05:00 +18°C° 0.6 mm 0 m/s 747 mmHg 94%
    06:00 +21°C° 0.6 mm 1 m/s 747 mmHg 93%
    07:00 +21°C° 0.6 mm 1 m/s 747 mmHg 92%
    08:00 +22°C° 0.5 mm 1 m/s 746 mmHg 92%
    09:00 +22°C° 0.5 mm 1 m/s 746 mmHg 91%
    10:00 +22°C° 0.5 mm 1 m/s 746 mmHg 90%
    11:00 +23°C° 0.8 mm 1 m/s 746 mmHg 84%
    12:00 +25°C° 0.8 mm 1 m/s 746 mmHg 79%
    13:00 +26°C° 0.8 mm 1 m/s 746 mmHg 74%
    14:00 +26°C° 1.3 mm 1 m/s 746 mmHg 72%
    15:00 +26°C° 1.3 mm 1 m/s 745 mmHg 71%
    16:00 +26°C° 1.3 mm 1 m/s 745 mmHg 70%
    17:00 +26°C° 0.2 mm 1 m/s 745 mmHg 74%
    18:00 +25°C° 0.2 mm 1 m/s 745 mmHg 77%
    19:00 +24°C° 0.2 mm 1 m/s 745 mmHg 81%
    20:00 +23°C° 0 mm 2 m/s 745 mmHg 84%
    21:00 +20°C° 0 mm 2 m/s 745 mmHg 88%
    22:00 +19°C° 0 mm 2 m/s 744 mmHg 91%
    23:00 +18°C° 0 mm 3 m/s 744 mmHg 92%
    Mostrar mais